Location: Haut Kerinec
(48.0623°N, 4.4081°W)
Time: 22:38:23
(UTC+00:00)

SPOT 1/Viking Rocket - Pass Details

Date: 01 June 2020
Orbit: 778 x 794 km, 98.5° (Epoch: 14 July)

Event Time Altitude Azimuth Distance (km) Brightness Sun altitude
Exits shadow 20:45:17 - 137° (SE) 2,645 5.6 -5.4°
Reaches altitude 10° 20:46:07 10° 134° (SE) 2,336 5.3 -5.5°
Maximum altitude 20:50:53 40° 67° (ENE) 1,144 4.3 -6.1°
Drops below altitude 10° 20:55:41 10° 359° (N) 2,344 6.7 -6.7°
Sets 20:58:06 0° 352° (N) 3,275 7.7 -7.0°
